Wind_Speed
23 23 25 27 28 30 29 29 30 29 28 27 25 24 23 22 20 18 16 16 18 18 19 20 21 22 22 21 19 18 19 20 21 21 22 23 23 22 21 20 21 21 21 21 20 18 17 17 17 17 16 14 13 13 13 14 13 12 12 12 12 11 11 12 11 14 17 16 17 19 21 22 22 23 25 26 27 28 28 28 28 27 26 26 28
25 25 26 29 30 31 31 31 31 30 29 27 25 24 23 22 20 18 16 17 18 19 20 22 22 23 22 20 20 19 20 21 21 22 22 23 23 22 20 20 20 20 19 19 18 17 16 15 16 17 17 16 15 14 15 15 13 14 13 13 14 13 12 12 12 13 16 19 18 19 21 22 23 24 26 27 27 28 28 28 28 27 26 27 28
26 26 27 29 30 31 31 31 30 30 29 28 26 25 23 22 20 17 16 19 20 20 20 22 23 23 22 21 21 21 21 21 21 22 21 21 21 21 20 19 19 18 17 16 16 15 15 15 15 15 14 14 15 15 16 16 15 14 14 13 13 14 14 12 11 12 15 18 19 20 21 22 23 25 26 25 27 28 28 28 28 29 29 29 30
27 27 27 28 29 30 31 31 30 30 29 27 26 25 24 22 19 17 18 21 21 21 21 23 23 22 22 22 22 21 21 21 21 21 20 18 18 19 19 18 17 16 16 15 14 13 14 14 14 13 12 13 14 14 15 16 15 14 14 14 13 15 15 13 12 13 15 17 19 20 20 21 23 25 26 26 27 27 26 26 28 30 30 30 30
28 29 29 29 29 29 29 29 29 28 28 26 26 25 24 22 19 18 20 22 22 22 23 23 23 23 23 22 22 21 21 21 21 21 19 19 18 18 17 16 16 15 15 14 13 13 13 13 12 12 13 13 14 14 16 16 15 14 14 14 14 16 15 13 13 13 14 17 19 19 20 21 23 24 25 28 29 27 26 26 28 30 31 30 30
30 30 29 30 30 29 29 28 28 28 27 26 26 25 24 21 20 20 20 21 22 23 24 24 24 23 23 22 21 21 21 21 21 20 20 20 19 18 17 15 14 14 13 13 13 12 12 12 12 12 13 14 15 15 16 17 16 14 14 15 15 16 15 14 15 14 15 16 18 19 21 22 23 24 26 27 28 27 28 29 29 30 32 34 33
30 29 30 30 30 29 29 28 28 27 27 27 26 25 23 22 21 20 20 21 23 24 24 24 24 23 23 23 21 21 22 21 21 20 19 19 19 18 17 15 14 13 12 12 12 11 12 12 12 12 13 15 15 16 17 18 15 12 14 16 16 16 15 15 15 15 16 17 18 20 21 22 23 25 27 26 24 25 28 32 33 32 33 35 35
30 30 30 31 30 29 28 27 27 27 27 27 26 25 24 22 21 20 20 22 23 24 25 25 25 24 24 23 22 21 22 21 20 19 18 18 18 17 15 14 13 13 12 11 10 11 11 12 12 12 14 14 14 15 17 18 16 12 13 16 16 16 15 15 16 16 16 17 18 20 21 22 24 26 27 27 26 26 28 32 33 33 34 35 34
30 30 30 30 30 29 28 27 26 26 26 27 27 25 24 22 20 19 20 22 23 24 25 25 25 25 24 23 21 21 21 21 20 19 19 18 17 15 14 13 12 12 11 10 10 10 10 12 12 12 12 12 12 13 15 18 17 15 14 16 17 15 15 15 16 16 17 17 18 20 21 22 25 27 27 27 28 29 30 31 31 32 33 33 33
30 29 29 29 29 28 27 26 26 26 27 28 27 25 23 21 19 20 21 23 24 24 25 25 25 25 24 24 22 20 20 20 19 18 18 17 16 15 13 12 11 10 9 9 9 9 10 10 11 10 10 10 11 13 14 16 18 17 16 17 16 14 14 15 15 16 17 17 18 20 20 22 24 26 25 26 28 28 30 33 32 31 31 30 30
30 29 28 29 29 27 26 26 26 28 28 27 26 23 21 20 20 21 22 24 24 25 25 25 26 25 24 24 22 20 19 18 17 16 16 16 15 14 12 11 10 9 8 8 8 8 8 9 10 10 11 11 11 13 15 16 18 18 18 18 16 14 14 14 14 15 16 17 18 19 20 21 24 24 24 27 28 27 29 31 31 31 31 28 27
29 29 28 29 29 27 27 27 28 29 28 26 24 22 20 20 20 22 23 24 25 25 25 25 25 25 24 24 22 20 18 17 16 15 14 13 13 12 11 10 10 8 7 7 7 7 7 8 9 10 11 11 12 14 16 17 19 18 18 18 17 16 15 15 15 16 16 16 17 19 20 21 22 24 26 27 28 28 28 29 31 31 30 29 28
29 29 28 28 28 28 29 29 30 30 28 26 24 22 21 20 21 22 24 25 25 25 25 25 25 24 24 24 22 19 18 17 16 15 13 13 12 11 10 9 8 7 7 7 7 7 7 7 8 9 10 12 13 15 17 19 20 19 19 19 18 17 17 17 17 18 17 16 16 18 21 21 21 25 28 27 28 28 28 28 30 31 31 31 31
30 29 28 28 29 30 31 32 32 31 29 27 25 23 22 21 21 21 23 24 24 23 23 24 24 24 25 24 21 19 18 17 16 14 13 12 12 11 9 8 7 6 7 7 7 7 8 8 7 8 10 12 14 16 18 20 21 20 20 19 19 18 19 19 19 19 20 19 17 19 22 23 23 27 30 29 27 27 28 27 29 31 31 31 31
32 31 29 30 32 33 33 33 33 32 30 28 25 23 21 19 20 20 21 22 22 22 23 24 24 25 25 23 21 20 19 18 16 14 13 12 12 11 9 8 6 5 5 6 6 7 7 8 7 8 10 12 14 16 18 20 20 20 19 19 19 19 20 21 20 19 20 20 21 22 25 27 28 30 32 31 28 28 27 25 25 28 30 29 28
34 33 33 34 35 35 35 35 34 33 31 29 27 24 20 19 20 20 20 21 23 23 24 24 24 25 24 23 22 21 20 18 16 15 13 11 12 12 10 8 6 4 4 5 5 6 7 7 6 7 9 12 13 15 18 19 19 19 19 20 19 18 18 20 20 18 17 18 20 22 24 26 28 31 32 32 32 30 26 22 23 26 29 29 27
36 37 37 37 37 37 37 36 36 34 33 31 30 25 20 20 22 22 22 23 25 25 25 25 24 24 23 23 22 21 20 18 16 15 13 11 12 13 12 9 7 5 4 5 4 5 6 6 6 7 9 11 13 15 18 18 17 17 18 20 20 18 19 22 22 19 18 18 19 21 23 25 27 30 32 34 35 32 24 22 25 28 28 26 24
37 39 39 39 40 39 38 38 37 36 36 34 29 24 21 23 24 23 23 24 25 26 25 25 23 22 22 22 22 21 20 18 16 15 14 12 12 12 12 9 7 6 5 5 4 3 4 4 5 7 9 10 12 14 17 16 15 16 17 18 17 17 19 23 24 23 22 21 21 22 23 25 27 30 32 34 36 34 26 22 24 27 28 25 24
38 40 40 40 40 39 39 38 37 39 37 32 27 25 24 25 24 24 24 24 25 25 25 24 23 22 21 21 20 20 19 18 17 15 14 13 12 12 11 9 8 7 6 5 4 3 2 3 5 7 8 9 11 14 15 15 14 15 15 14 13 14 18 21 21 22 23 23 24 25 26 28 30 31 33 35 36 37 32 25 21 24 27 27 28
40 40 40 40 40 39 39 38 38 39 35 30 28 27 26 25 26 26 25 25 25 25 24 24 23 22 21 20 19 19 19 18 17 16 14 14 13 12 11 9 9 8 7 5 4 3 1 1 4 6 7 8 9 12 13 13 13 13 14 13 12 14 17 19 19 21 23 24 25 26 26 28 29 29 30 33 36 38 38 32 24 21 24 27 29
39 39 39 39 39 38 38 37 37 36 32 30 30 28 25 26 27 26 26 25 25 25 24 23 22 21 21 20 19 18 17 17 17 16 15 15 14 13 12 10 9 8 7 5 4 3 2 0 2 5 6 7 9 10 10 10 12 12 12 12 12 14 17 19 20 22 22 23 23 23 22 23 25 26 27 30 33 37 38 36 31 25 22 23 25
37 37 38 39 38 38 37 37 36 34 32 31 30 27 26 27 26 26 26 26 25 25 24 23 21 21 20 18 17 16 15 14 15 16 16 15 15 14 12 10 9 8 7 5 4 2 1 1 2 4 6 7 8 8 8 8 10 10 11 12 13 15 17 19 21 22 21 20 20 20 20 21 22 24 26 29 33 36 37 36 36 33 28 24 22
38 38 39 39 38 38 37 37 35 33 32 32 30 27 27 28 27 27 27 26 25 25 24 22 20 19 18 16 15 15 14 13 14 15 16 16 15 14 12 11 10 9 7 5 4 3 2 1 2 4 5 6 7 7 6 6 8 9 10 12 13 15 18 19 20 21 19 19 19 18 19 20 21 22 26 29 33 36 37 37 38 36 33 32 27
37 36 37 39 38 37 36 36 35 33 33 33 31 30 30 30 29 28 27 26 25 23 21 21 19 17 16 15 14 14 14 14 14 14 15 15 15 14 13 11 11 10 8 6 4 4 3 2 2 3 5 6 6 6 5 5 6 7 9 11 12 15 17 17 18 18 17 17 18 19 19 21 22 24 27 30 32 33 35 38 39 37 35 35 31
35 34 36 38 38 36 34 34 35 34 34 34 33 33 33 31 29 28 26 25 23 21 20 20 18 16 15 14 13 14 14 15 15 15 15 15 15 14 14 13 12 10 8 7 5 4 3 2 2 3 5 5 6 6 5 6 6 7 9 11 12 13 15 16 16 16 15 16 18 18 19 22 25 27 30 32 30 27 31 35 37 37 36 33 27
34 32 34 36 38 37 36 35 35 34 34 34 34 34 35 33 30 27 24 22 21 20 20 19 17 15 14 13 13 14 14 15 15 16 17 16 16 15 15 13 12 10 9 7 6 4 4 3 3 4 5 6 6 6 6 6 7 9 10 11 12 12 14 14 14 14 14 15 17 18 20 24 27 29 33 32 26 23 28 32 31 32 32 29 25
32 31 33 34 35 37 37 35 33 33 33 33 32 33 34 33 31 28 24 21 20 20 20 19 18 16 14 14 13 13 14 14 15 16 18 18 17 16 15 14 12 10 8 7 6 4 4 4 4 5 5 6 7 7 7 8 9 10 10 10 11 12 13 14 15 14 14 15 16 17 20 23 25 27 29 28 24 24 29 28 26 27 29 26 23
34 34 34 33 33 36 36 34 32 31 32 31 29 29 31 31 30 29 27 24 23 22 21 20 19 17 16 14 13 13 13 14 16 18 21 21 20 18 17 15 13 11 8 7 6 5 5 5 6 6 7 7 7 7 7 8 9 9 10 10 11 13 14 15 15 13 13 16 17 17 19 21 22 23 24 24 23 25 27 26 25 26 26 24 22
33 33 33 32 32 34 35 34 32 31 31 31 30 30 31 30 29 30 31 29 27 25 23 21 21 20 18 15 15 14 13 14 17 19 20 22 21 20 18 16 13 11 9 7 6 6 6 6 6 7 7 7 6 6 6 7 8 9 10 11 12 12 12 13 12 12 15 18 18 17 18 19 20 21 22 23 25 25 25 25 24 23 23 23 22
32 31 31 32 32 33 34 33 32 32 31 31 30 30 31 31 30 30 30 30 28 26 25 24 24 23 20 18 17 16 13 13 15 16 18 20 20 19 17 15 12 10 9 7 6 6 6 6 6 7 7 7 7 6 7 8 9 10 11 11 12 13 13 13 12 13 18 20 18 17 18 18 18 20 20 22 26 26 24 24 23 21 21 22 21
32 30 30 32 33 34 33 32 31 31 30 30 30 28 26 27 27 27 27 27 26 26 25 24 24 22 20 19 17 16 13 10 10 12 16 18 19 18 17 14 12 10 9 7 6 6 6 7 7 7 7 7 8 8 8 9 10 11 11 12 12 13 13 13 13 16 19 19 18 18 18 17 17 18 20 22 25 24 22 23 23 21 21 22 21
34 31 30 32 33 34 33 32 30 28 26 26 27 27 25 22 21 22 23 24 24 24 23 24 23 21 18 17 16 15 13 10 8 11 14 16 18 18 17 15 13 11 10 9 8 7 7 7 8 8 8 8 9 9 10 11 12 11 12 12 13 13 12 13 15 18 19 18 18 19 18 17 18 19 20 22 23 21 21 22 22 21 21 22 22
36 33 31 32 32 33 33 32 31 30 28 28 27 26 25 22 18 17 18 19 21 22 23 24 24 21 19 18 18 17 16 13 11 11 12 13 16 17 17 16 14 13 12 11 10 8 8 8 9 10 10 10 10 10 11 12 13 13 13 14 14 14 14 15 18 19 18 18 19 19 18 18 19 19 19 20 19 18 18 20 20 21 20 21 22
36 34 34 34 34 34 34 33 32 32 32 32 30 28 27 26 21 17 15 14 15 19 23 25 25 23 21 21 20 20 19 17 15 14 12 12 14 16 17 17 16 16 15 14 13 11 10 9 10 10 10 11 11 11 12 13 13 14 15 15 16 16 17 18 19 18 19 19 19 17 17 18 17 17 17 18 17 17 17 17 19 20 20 19 21
33 33 34 35 35 36 36 35 34 33 33 33 32 30 30 29 26 23 21 18 15 16 20 24 26 25 23 22 22 21 20 19 17 16 15 14 13 16 18 18 17 17 18 18 17 15 13 11 11 11 12 12 13 13 14 15 15 15 16 16 17 17 18 19 19 19 20 20 19 18 19 18 17 17 16 16 15 15 15 16 17 18 19 19 19
32 32 33 34 34 35 35 34 34 34 34 33 32 32 33 31 28 27 27 24 18 15 17 22 25 24 23 23 23 22 21 20 18 17 18 17 16 16 19 20 18 16 16 17 17 18 17 16 15 15 14 14 15 16 17 17 17 17 17 17 18 19 18 19 19 20 20 20 20 20 20 19 18 17 16 15 14 13 13 15 17 17 19 20 20
33 33 33 34 34 33 34 34 34 34 34 33 31 30 31 32 30 27 27 26 23 21 21 23 23 22 22 23 23 22 21 20 19 18 18 19 18 18 20 19 17 16 15 15 16 18 20 20 20 19 18 17 18 18 18 19 19 18 18 18 18 18 18 18 19 19 20 20 21 21 20 20 19 17 16 16 14 13 13 15 17 17 19 20 19
34 34 35 35 35 34 34 34 33 32 32 31 29 28 30 32 31 28 28 27 26 26 25 24 23 23 23 23 22 22 21 20 19 18 19 20 20 20 21 21 19 18 17 16 16 19 20 20 20 20 19 19 18 18 18 19 19 18 18 18 18 18 18 19 19 20 21 21 21 21 20 20 18 17 16 15 14 13 14 16 17 17 17 17 16
33 33 34 35 35 34 35 35 33 32 32 30 29 29 30 31 30 29 28 27 26 26 25 24 24 25 24 23 23 22 20 20 20 20 21 23 23 22 23 23 23 22 21 19 19 20 21 20 20 20 19 18 17 17 17 18 18 18 18 18 18 18 19 20 21 22 22 23 23 22 21 20 18 17 17 17 15 14 15 16 16 16 15 15 15
33 32 33 34 33 32 33 33 33 33 32 31 28 28 28 29 29 29 28 28 27 27 26 25 24 23 22 22 22 22 22 22 23 23 24 25 25 25 24 24 23 23 22 21 21 21 21 20 20 19 18 18 17 16 16 17 18 19 18 19 19 20 20 21 22 23 24 24 24 24 23 22 21 20 19 17 15 15 17 17 16 16 15 15 16
32 31 32 33 33 31 30 31 32 32 32 31 29 28 29 29 30 29 29 29 28 27 26 25 23 21 20 21 22 22 23 23 24 24 25 26 26 26 25 24 23 22 22 21 21 21 21 21 21 20 20 19 17 16 16 17 18 18 19 19 20 21 23 24 24 25 25 24 23 23 23 22 21 21 20 18 17 18 18 17 15 14 14 14 14
32 31 32 33 32 31 31 31 31 30 31 30 29 29 29 29 29 28 28 28 28 27 26 25 22 20 20 21 21 21 21 22 23 24 25 25 25 25 25 24 23 22 21 21 21 21 22 22 22 22 20 18 16 15 16 17 18 19 20 21 22 23 24 25 26 26 25 23 21 20 20 20 20 20 20 21 21 20 19 18 16 16 15 14 15
32 32 33 33 33 32 31 31 30 30 30 31 30 29 29 29 28 27 27 27 27 27 26 24 22 21 21 21 20 20 21 22 24 25 25 25 25 25 24 23 22 21 20 21 21 22 23 23 23 22 19 16 15 16 16 17 18 20 21 22 24 24 25 26 25 24 23 21 19 18 18 19 20 19 20 21 22 22 21 21 21 19 16 15 15
31 32 32 33 33 31 30 29 29 30 30 30 29 28 28 28 28 27 27 27 28 27 26 24 22 21 20 19 19 20 22 24 25 26 26 26 24 23 22 21 21 21 21 22 22 23 24 24 22 20 17 16 16 17 17 18 19 21 22 24 24 25 25 25 23 20 19 19 19 19 19 21 21 21 21 20 21 22 22 22 22 21 19 18 17
31 31 31 31 31 29 28 27 28 28 27 27 26 26 27 27 27 27 28 28 28 28 26 24 22 21 20 19 18 20 22 23 23 24 24 24 23 22 21 21 22 22 22 23 23 23 23 22 20 18 17 17 17 17 18 19 21 22 23 23 24 24 24 22 20 18 18 19 19 19 19 20 21 22 21 20 19 19 20 21 21 21 22 22 21
29 30 30 30 29 28 27 27 26 26 26 27 26 26 26 26 26 26 27 28 28 27 24 22 21 20 19 18 18 19 20 20 20 21 21 22 22 22 22 22 23 23 23 22 22 21 21 20 18 17 17 17 17 17 19 20 20 21 22 23 23 23 22 20 17 17 17 18 18 18 19 19 19 21 22 23 22 20 21 22 23 23 24 25 24
28 28 29 29 28 28 27 27 26 26 27 27 27 26 25 25 25 25 26 27 27 25 23 21 20 18 17 16 17 17 18 18 19 19 20 21 22 22 22 22 21 20 19 18 18 17 17 16 16 16 17 17 17 18 18 18 19 20 22 23 22 21 19 17 16 16 17 18 18 19 19 20 20 21 22 24 24 23 23 24 24 24 24 23 24
28 29 29 28 27 27 27 27 27 27 27 26 25 24 24 24 25 25 25 25 24 23 21 19 17 16 15 15 16 17 18 19 20 21 22 22 22 21 20 19 19 18 17 17 16 16 16 16 16 16 16 17 17 17 17 18 19 21 22 21 20 18 17 16 16 17 18 18 19 20 21 22 23 23 23 23 24 24 24 24 24 23 22 21 22
27 28 28 28 27 27 28 28 28 28 27 26 24 23 23 24 24 25 24 24 23 21 19 17 15 14 14 14 16 17 19 21 22 23 22 21 20 19 19 20 19 19 18 17 16 16 16 16 16 16 17 17 17 17 17 18 19 20 19 18 17 17 17 18 18 19 19 20 20 22 23 23 23 23 23 24 24 24 24 25 25 24 23 23 23
26 26 26 26 25 25 27 27 27 27 26 25 24 24 23 23 23 23 23 23 23 21 18 15 13 13 14 15 17 18 19 20 21 21 20 19 19 19 19 19 18 18 17 17 16 16 16 16 17 17 17 17 17 17 17 17 17 17 16 16 17 18 19 20 20 20 20 21 21 22 22 22 22 22 22 22 22 23 23 23 23 23 22 22 22
24 24 24 24 23 24 25 26 26 26 26 25 24 24 24 23 22 22 22 22 21 19 16 14 13 13 15 17 19 20 20 21 20 19 18 18 18 18 17 16 16 16 16 17 16 16 17 17 17 16 16 16 16 16 16 16 15 15 15 16 18 19 20 20 20 20 20 20 20 19 19 19 19 20 20 19 19 19 20 20 20 20 20 19 19
Wind_Direction
171 167 164 166 165 166 168 167 166 166 165 163 159 156 154 153 150 145 144 151 156 159 160 159 156 152 147 144 140 136 134 133 131 128 125 123 121 118 115 111 107 103 100 97 94 90 86 82 78 73 69 63 57 51 43 36 32 29 25 20 18 15 2 353 338 325 329 335 334 333 336 336 335 338 337 333 333 334 332 329 326 325 323 323 324
169 168 164 164 163 163 165 165 164 164 162 160 158 156 155 153 151 146 147 155 160 163 163 159 156 153 148 144 141 137 136 135 132 129 126 123 122 119 115 112 109 105 102 97 94 90 86 81 76 70 66 59 54 47 39 34 29 25 23 18 13 11 3 351 340 330 328 332 336 336 338 338 335 338 339 334 332 332 330 328 326 324 325 326 327
169 167 162 160 159 158 162 163 163 162 160 160 159 156 154 153 152 150 152 159 163 165 164 160 157 153 149 145 142 139 138 136 132 129 126 124 121 118 115 113 109 106 103 98 94 89 84 78 72 66 61 54 49 44 37 31 27 23 18 14 9 3 359 352 343 335 329 330 336 338 338 338 336 336 337 335 332 331 329 328 327 328 330 332 331
166 163 158 157 158 159 160 162 162 161 160 160 157 155 155 155 155 155 157 161 164 165 164 161 158 154 150 146 142 140 139 136 132 129 127 126 122 119 116 113 109 106 102 98 93 87 81 75 67 60 56 51 46 40 35 28 23 20 13 8 4 357 354 353 347 339 331 329 334 338 338 338 336 336 338 337 334 332 330 330 331 333 334 332 330
163 162 160 158 158 159 158 159 160 160 160 159 157 157 157 156 157 159 160 163 165 165 163 161 159 155 152 147 143 141 140 136 132 128 126 125 122 120 118 114 111 106 101 97 90 83 78 71 64 57 50 48 43 36 31 25 19 16 11 6 1 354 351 352 348 341 335 332 333 337 340 339 336 337 341 339 336 335 336 336 336 337 335 331 330
164 162 161 158 157 157 158 159 161 161 161 160 158 159 159 159 160 161 164 166 166 166 165 162 160 157 154 149 145 142 141 137 132 128 125 121 119 120 120 118 114 108 101 96 88 82 77 69 61 55 48 43 39 32 26 20 16 13 9 4 359 354 351 350 347 343 339 337 337 340 342 342 340 340 342 341 337 336 338 339 340 340 338 335 333
163 160 160 158 157 158 160 162 163 163 162 161 160 161 161 162 163 164 167 169 169 168 166 164 162 159 156 152 148 145 143 140 135 130 125 121 118 119 119 119 118 111 104 97 88 82 76 67 59 52 46 41 36 31 25 19 15 10 6 3 357 354 352 349 347 347 344 342 343 344 344 345 344 342 341 341 340 339 341 340 340 340 340 337 335
159 158 158 157 157 160 162 164 165 164 164 163 162 163 163 165 166 167 170 171 171 170 169 166 163 160 158 156 152 150 148 143 138 133 129 124 121 119 119 119 119 114 106 98 90 83 74 66 60 52 45 40 36 31 24 20 16 9 5 2 358 355 354 351 349 349 348 347 348 348 346 348 349 345 343 345 346 345 343 341 338 337 338 337 335
158 157 157 157 158 161 163 164 165 165 165 164 164 164 165 166 167 170 172 173 172 171 170 168 165 162 161 158 155 154 152 148 143 138 134 131 127 123 121 120 118 114 108 99 89 82 74 65 59 52 45 40 35 29 23 20 18 13 7 4 360 357 355 353 352 351 349 350 351 350 349 350 351 348 347 349 347 340 338 339 338 337 337 335 335
160 158 157 158 160 161 163 165 166 166 166 164 164 164 164 165 168 171 173 173 173 172 171 169 166 164 162 161 159 157 156 153 146 141 138 135 132 128 124 121 118 114 109 101 90 79 73 64 54 46 42 38 31 23 19 17 17 16 13 10 8 4 359 355 354 353 350 351 352 351 352 351 350 349 347 346 342 337 337 340 339 338 339 337 335
161 159 158 159 160 162 165 167 167 166 164 163 163 164 164 165 168 170 171 172 172 172 171 170 168 166 165 164 163 162 161 158 153 149 146 140 136 134 130 124 118 112 106 100 89 78 70 60 48 38 33 32 24 16 15 15 15 16 16 17 18 17 11 1 355 352 350 351 352 352 353 349 346 347 348 344 340 336 336 340 340 341 343 340 336
162 160 160 160 161 164 166 166 164 163 163 163 164 165 165 166 168 169 170 172 172 172 173 172 170 169 168 167 167 167 167 165 162 160 157 152 147 142 137 129 119 110 102 95 86 76 67 57 46 36 28 25 19 13 13 13 14 17 18 19 22 22 20 14 5 358 352 348 349 352 354 348 343 346 347 343 338 334 334 339 343 343 342 340 336
164 162 161 161 162 164 165 164 164 164 165 165 165 166 166 167 168 168 170 172 172 173 173 174 173 172 171 171 170 169 170 170 168 167 166 166 162 152 145 137 124 111 101 95 87 74 62 53 46 35 23 19 15 12 10 9 11 16 18 18 19 20 22 21 15 9 1 353 346 347 351 347 341 343 345 341 336 335 335 339 343 344 343 341 336
165 163 160 160 162 164 165 167 168 168 167 167 166 166 166 166 166 167 169 170 171 173 175 176 176 176 175 174 172 172 173 173 173 173 174 176 175 167 158 149 134 115 101 98 91 73 58 52 47 32 18 13 11 10 8 5 6 12 15 15 16 18 20 19 15 12 9 4 354 349 353 353 347 347 350 347 340 337 334 334 339 344 343 339 334
166 163 161 163 164 166 169 170 169 168 167 166 164 162 161 163 165 167 169 169 169 174 179 180 179 179 179 178 176 176 176 175 175 176 176 177 180 180 175 167 152 126 106 104 94 70 57 52 43 26 15 11 8 7 5 3 4 8 10 11 14 17 18 16 14 10 8 7 4 360 2 3 360 359 359 356 350 344 336 329 335 342 340 335 333
165 164 165 166 169 171 172 172 170 169 168 165 162 159 160 165 168 170 174 174 171 176 182 184 183 181 181 182 182 181 181 179 178 178 178 177 182 186 187 180 169 151 124 116 97 65 55 51 35 18 11 8 6 4 3 2 4 5 6 9 12 13 12 13 16 13 8 7 6 5 6 7 7 9 8 5 360 352 342 335 342 346 342 337 334
167 168 169 171 173 174 175 174 171 169 168 166 163 164 170 173 171 173 178 178 176 178 182 184 184 183 183 185 186 184 182 182 181 182 184 184 186 190 191 185 177 172 152 133 104 63 53 46 25 13 9 5 4 2 2 4 6 4 5 9 10 7 5 9 14 15 11 9 6 5 7 8 9 12 13 11 8 1 349 343 349 351 346 341 337
171 171 173 175 176 176 177 177 174 171 170 169 169 173 179 178 176 177 180 180 180 180 182 183 183 184 186 188 189 188 185 185 184 186 190 191 189 190 190 185 182 180 165 146 117 72 53 35 17 12 9 4 2 1 3 7 7 5 6 8 6 2 2 6 9 9 9 9 7 6 8 10 11 12 13 14 12 7 358 346 348 351 348 343 340
176 177 178 179 179 178 179 179 177 174 172 173 176 178 179 180 181 182 182 182 181 181 182 183 183 184 189 191 192 193 190 188 188 190 194 196 192 190 188 184 182 181 171 156 133 101 58 14 12 12 7 3 1 2 7 12 12 11 10 6 359 356 1 5 5 4 6 7 7 7 8 10 11 11 11 12 12 10 5 354 346 350 350 347 345
181 181 181 180 180 180 180 180 179 177 176 179 180 178 178 182 183 182 182 181 180 181 181 182 182 184 188 191 193 195 195 193 194 196 198 198 192 188 188 185 181 179 173 162 145 132 127 352 360 3 2 1 2 6 12 16 20 21 19 11 360 356 3 8 8 7 8 7 8 7 5 5 6 5 5 6 8 10 10 4 354 349 350 352 352
181 179 179 180 181 181 182 182 180 180 181 182 179 177 181 184 181 179 180 180 179 180 180 180 182 185 188 191 194 196 198 200 200 198 196 193 187 184 186 185 181 176 170 162 150 140 147 216 330 345 353 356 2 11 16 21 28 30 24 18 12 7 8 11 11 11 9 5 4 2 358 358 360 360 359 0 3 8 10 7 2 356 351 350 350
178 176 178 181 181 181 182 182 181 182 184 183 180 181 185 184 179 178 179 179 178 178 178 179 181 183 186 190 192 191 190 193 195 191 187 185 182 181 184 187 182 174 168 161 153 151 171 220 299 332 346 352 1 11 16 24 33 33 25 22 19 15 14 13 11 10 6 2 360 358 356 356 356 357 358 358 0 5 7 6 7 7 2 355 348
177 178 180 181 182 182 184 184 184 185 185 185 184 184 185 183 181 179 178 176 174 174 175 177 177 177 180 182 183 183 180 181 184 183 181 181 182 183 187 191 186 177 170 164 160 170 202 244 301 330 342 346 355 5 8 15 24 24 20 18 15 12 13 13 10 8 4 360 358 356 356 357 354 353 357 359 2 5 6 6 9 9 7 6 2
177 179 180 182 183 183 184 185 185 186 187 186 185 185 184 183 180 178 177 174 171 170 172 174 173 173 176 176 176 178 179 180 182 182 179 180 184 186 189 190 188 183 178 176 180 195 216 249 294 326 341 343 346 352 350 351 359 2 3 5 5 6 9 8 5 2 360 358 357 354 354 355 354 354 357 1 6 6 5 7 10 8 7 8 6
177 178 180 182 182 182 183 184 186 187 188 187 185 184 184 181 178 178 177 174 171 171 172 174 175 175 176 175 175 178 182 184 185 183 181 180 182 185 187 186 185 185 184 188 197 208 222 249 286 314 331 337 341 344 335 328 333 338 343 348 352 356 360 359 357 356 354 354 355 353 352 353 356 359 3 5 5 1 0 4 7 6 5 5 1
177 178 180 182 182 183 184 184 185 187 188 189 188 187 185 181 179 179 178 176 176 175 174 175 177 177 178 177 176 180 186 189 189 188 185 183 183 184 184 184 186 186 190 197 206 216 232 257 287 301 311 322 330 331 322 316 319 323 328 335 339 343 348 349 349 349 349 349 350 350 351 354 357 1 5 5 360 354 357 360 359 359 359 356 354
176 177 180 181 183 185 184 183 184 186 188 189 189 189 189 186 183 182 182 180 179 179 179 179 178 176 178 179 178 183 189 193 194 193 189 186 186 186 185 185 186 187 193 203 212 226 246 263 281 290 296 308 317 319 318 317 319 320 320 320 324 329 334 339 342 342 342 343 344 345 348 353 355 357 360 1 356 354 358 357 352 353 354 350 349
177 178 179 180 181 183 183 182 182 184 186 188 188 188 189 189 188 188 189 188 185 185 184 182 181 179 178 180 182 187 194 200 201 196 192 188 186 186 187 187 187 190 198 208 220 240 259 267 275 280 283 291 298 303 309 313 316 320 320 318 320 323 326 333 337 336 337 339 340 342 345 350 353 354 353 354 353 354 357 356 352 351 352 351 352
177 177 178 179 181 182 183 182 183 184 187 189 192 194 195 194 194 196 199 200 199 197 193 189 187 184 181 183 187 189 199 209 205 198 194 189 186 187 189 189 189 195 204 215 229 245 257 260 263 266 267 274 283 289 300 310 314 319 323 325 326 324 324 328 328 327 335 340 340 340 343 346 349 352 352 352 353 353 354 354 352 348 349 352 354
175 176 178 179 180 181 181 183 185 188 189 190 193 197 200 201 201 203 208 210 211 211 208 204 200 193 189 191 193 194 201 210 205 198 195 192 189 190 190 191 196 203 211 226 239 245 250 250 252 257 260 267 278 287 297 306 311 315 320 324 326 328 328 327 325 327 335 339 337 336 339 342 345 350 351 350 352 352 352 352 351 348 350 353 352
174 176 179 180 180 180 181 183 186 189 190 191 192 194 199 203 205 207 212 215 216 217 217 216 212 204 196 195 198 201 206 210 205 200 198 195 193 193 193 196 203 209 219 238 249 249 250 250 251 258 262 266 275 284 292 299 304 308 314 317 319 325 328 327 327 331 335 335 333 334 337 338 340 344 347 349 351 352 350 351 353 352 352 354 351
176 177 180 182 181 181 181 182 184 185 185 186 189 192 194 197 201 206 211 214 215 218 220 218 215 208 201 201 207 212 214 213 207 205 204 200 197 197 199 203 209 216 229 244 253 255 253 252 254 259 263 268 276 283 291 298 301 303 307 310 312 317 321 323 327 332 331 329 330 333 336 337 338 340 345 348 350 350 350 351 353 351 350 352 350
182 180 181 181 181 182 183 184 184 185 185 185 188 190 192 191 190 195 204 209 213 216 217 216 213 210 209 214 220 224 225 224 219 214 213 208 203 201 203 208 214 223 234 244 252 256 256 255 257 259 264 271 278 285 291 297 302 304 306 307 309 312 317 321 327 331 331 329 331 333 334 336 336 337 340 343 345 346 347 350 351 350 350 350 349
186 184 184 182 182 183 186 186 187 188 189 189 189 191 193 193 187 183 186 193 202 210 214 216 216 216 218 222 227 231 234 235 232 227 224 220 212 208 208 213 221 229 237 243 248 252 255 259 260 262 268 273 279 289 295 297 300 306 308 309 310 312 317 321 324 326 327 327 328 329 332 334 334 333 334 338 341 343 346 349 351 351 350 348 346
188 188 187 185 184 185 188 189 190 190 189 189 190 192 194 194 190 188 189 190 191 200 210 216 219 220 223 228 232 236 239 240 239 234 228 226 222 215 213 218 226 232 237 242 246 248 253 259 261 265 270 275 281 290 296 298 301 304 306 309 312 313 314 317 319 322 324 325 325 326 330 334 335 333 330 330 333 337 341 346 348 350 350 347 343
189 188 187 187 187 187 188 190 192 191 191 192 194 196 196 195 194 193 194 195 195 196 206 215 220 222 227 233 237 240 241 242 242 237 229 227 228 222 218 221 226 231 236 240 244 248 253 258 263 267 271 275 282 289 295 298 301 304 305 308 313 314 314 315 317 319 321 322 322 325 328 330 332 334 332 328 327 330 335 340 343 345 349 349 346
191 189 188 188 189 188 188 191 193 194 195 197 197 196 196 198 198 196 194 196 201 205 210 216 220 223 229 234 237 240 240 240 240 236 228 226 228 227 225 224 227 233 239 241 244 250 254 258 264 268 271 275 282 288 293 296 298 302 305 308 311 314 314 314 315 316 317 318 319 322 325 327 329 332 332 329 327 326 330 337 340 341 345 349 351
194 193 191 190 189 188 189 192 194 195 197 197 196 195 196 198 200 198 196 198 205 210 215 219 222 224 230 234 236 238 238 235 232 228 223 222 224 227 228 229 232 237 242 245 247 252 256 258 263 267 271 277 283 287 290 292 294 298 302 305 308 311 313 314 315 315 316 316 316 317 319 321 323 324 325 325 324 322 325 332 336 337 339 344 348
195 195 194 192 190 190 191 192 192 193 195 196 196 198 198 198 199 199 197 199 204 210 215 218 221 225 230 233 235 233 227 222 220 220 219 222 226 229 232 234 237 242 247 250 252 256 258 260 264 269 274 280 286 287 287 287 289 292 296 301 305 308 310 312 312 312 312 311 311 310 311 313 316 316 317 319 320 319 321 326 330 331 332 334 338
193 194 194 192 191 191 192 192 192 193 195 196 197 197 198 199 200 200 199 199 204 210 215 217 220 226 230 233 234 230 221 217 219 220 221 225 229 233 235 238 241 245 249 252 254 257 259 262 266 272 278 284 288 288 284 283 284 287 292 297 302 305 308 309 309 309 309 310 310 310 310 311 312 312 312 312 313 314 318 322 324 325 326 328 331
194 193 192 192 190 188 188 191 193 195 196 198 198 199 201 202 202 202 201 202 205 210 214 217 222 229 233 235 235 230 223 222 225 227 229 232 235 237 240 243 245 247 250 252 254 257 261 266 270 276 283 288 289 286 282 281 282 285 290 297 301 304 308 311 312 313 314 314 314 314 313 312 311 307 304 304 306 309 313 315 315 315 316 318 321
194 193 192 191 190 189 190 192 195 196 197 198 200 201 203 204 204 203 204 205 207 210 213 217 224 231 234 235 234 229 226 229 234 235 237 240 242 243 246 248 248 250 252 254 258 261 266 270 275 280 285 287 285 282 279 280 284 288 293 299 303 306 308 310 312 315 317 318 319 318 316 315 313 309 306 305 304 304 306 306 307 309 310 310 314
196 195 194 192 191 192 193 195 196 196 198 199 201 202 204 205 206 206 207 208 210 212 215 219 224 229 232 235 235 232 231 235 238 239 241 244 246 247 248 248 249 250 252 256 261 265 269 273 277 280 281 280 276 275 277 281 286 291 296 300 302 304 306 307 310 315 317 318 319 319 319 318 318 315 311 309 306 303 302 302 303 305 304 303 307
196 196 194 193 193 194 195 197 198 199 200 201 202 203 205 206 208 209 209 210 212 214 217 221 226 229 231 233 236 238 239 240 239 239 242 245 245 245 244 245 247 251 255 261 265 268 272 275 276 275 272 268 268 272 277 282 286 291 294 297 298 298 300 305 310 314 314 313 315 318 320 321 320 318 314 312 310 306 303 301 300 300 298 298 301
196 195 193 193 193 194 196 198 200 200 200 201 202 204 205 207 209 211 212 214 215 217 219 223 227 229 231 235 240 244 244 240 237 238 240 241 242 243 245 249 254 258 262 266 269 271 273 274 273 268 263 261 265 271 277 281 285 288 290 293 295 296 299 304 308 308 306 308 313 317 319 320 319 316 312 309 307 303 300 298 296 296 295 295 296
196 195 194 193 193 193 196 198 199 199 200 201 202 204 206 207 210 213 215 217 218 219 222 226 229 231 233 238 243 242 237 233 233 236 237 239 242 247 252 258 262 265 267 268 269 270 271 270 266 261 258 258 264 271 275 279 283 285 288 291 294 297 301 305 305 301 301 305 311 314 315 315 313 312 310 309 307 304 302 301 300 298 297 296 294
196 196 195 194 193 193 195 197 198 200 202 203 205 206 207 208 210 214 216 218 220 222 225 228 230 232 235 241 243 239 233 230 234 238 241 243 248 253 258 262 264 265 265 264 264 265 265 262 259 257 258 261 266 271 274 278 280 284 288 293 295 298 301 303 301 299 301 305 307 308 307 305 303 303 304 306 306 305 304 305 304 303 302 300 297
197 197 197 195 193 193 194 196 199 201 202 204 205 207 208 209 210 213 216 219 221 223 226 229 232 235 239 244 247 245 240 238 240 244 248 251 254 257 259 260 260 260 260 260 260 262 262 261 259 260 262 265 269 271 273 277 281 285 291 295 296 297 300 302 303 302 303 304 304 304 302 300 299 299 299 300 301 302 303 304 304 303 301 299 298
198 198 198 196 196 196 197 198 200 201 202 204 205 207 209 211 212 214 217 220 222 224 228 231 234 239 245 250 253 252 249 247 248 250 251 253 254 255 256 256 256 257 259 261 262 263 262 261 262 262 263 266 268 270 273 278 283 288 293 295 296 297 299 301 302 302 302 301 302 302 302 300 299 299 300 300 301 303 305 305 306 306 304 302 300
200 200 199 198 197 198 199 200 201 202 203 205 207 209 210 211 213 215 217 219 222 225 228 231 235 246 256 260 259 256 255 255 255 254 252 251 252 253 254 253 254 256 259 261 261 262 263 264 265 265 266 267 269 272 277 282 286 289 292 294 296 298 299 299 299 300 300 301 302 302 301 302 302 302 303 304 304 305 306 306 307 307 306 303 301
200 201 201 200 199 199 200 201 201 202 203 204 207 209 210 211 214 216 218 221 223 224 225 228 238 253 266 268 265 261 260 261 261 257 251 249 250 251 251 252 255 258 261 262 264 266 268 269 270 271 272 273 276 279 283 284 285 286 290 293 297 299 299 299 299 299 299 301 302 302 302 303 304 304 305 306 306 306 307 308 309 310 308 304 300
Height
811 813 815 817 820 822 824 826 828 831 833 835 837 839 841 843 844 845 847 848 850 852 853 855 857 859 860 861 862 863 864 864 865 866 866 867 867 868 868 869 868 868 869 869 869 869 869 869 869 869 870 870 870 870 870 869 868 867 867 866 866 865 864 863 860 856 852 850 847 844 841 837 834 831 827 823 819 816 812 808 804 800 796 792 788
811 813 815 817 819 821 823 826 828 830 833 835 837 839 841 843 845 846 847 849 851 853 854 856 858 859 861 862 863 864 865 865 866 867 868 868 868 869 869 870 869 869 870 870 870 870 870 870 871 871 871 871 871 871 870 869 868 868 867 867 866 865 864 862 860 856 852 848 846 843 840 837 833 829 826 822 818 814 810 806 802 798 795 792 788
810 812 815 817 819 821 823 826 828 830 833 835 837 839 841 843 845 846 847 849 852 853 855 857 858 860 861 862 863 865 866 867 867 868 869 869 870 870 870 871 870 871 871 871 871 871 871 872 872 872 872 872 871 871 870 869 869 868 867 867 865 864 863 861 859 856 852 848 845 842 839 836 832 828 825 821 817 813 809 805 801 798 795 792 788
810 812 815 817 819 821 823 825 828 830 833 835 837 840 842 844 845 846 848 850 852 854 855 857 859 860 862 863 864 865 866 867 868 869 870 870 871 871 871 871 871 871 872 872 872 872 872 873 873 873 873 872 872 871 871 870 869 869 868 866 865 864 862 860 858 856 852 848 845 842 839 835 831 827 823 820 816 813 809 804 801 797 794 790 786
810 811 814 816 819 821 823 826 828 831 833 835 837 840 842 844 845 847 848 850 852 854 856 858 859 861 862 863 865 866 867 868 869 870 870 871 871 871 872 872 872 872 873 873 873 873 873 874 874 873 873 872 872 872 871 871 870 869 868 866 865 863 861 859 857 855 852 848 844 841 839 835 831 827 823 819 814 810 808 805 801 796 792 788 784
809 811 813 816 818 821 824 826 829 831 833 835 837 840 842 844 845 847 849 850 852 854 855 857 859 861 862 864 865 867 868 869 870 871 871 871 872 872 872 873 873 873 874 874 874 874 874 874 874 874 873 873 872 872 872 871 870 869 868 866 865 863 860 858 856 854 851 848 845 841 838 835 830 826 823 819 814 809 805 803 800 796 791 785 781
808 811 813 815 819 821 824 826 828 831 833 835 837 840 841 843 845 846 848 850 851 853 855 857 859 861 863 864 866 867 868 870 870 871 872 872 872 873 873 873 874 874 874 875 875 875 875 875 874 874 874 873 873 873 872 871 870 869 868 866 864 862 860 858 855 853 851 848 845 841 838 835 831 827 823 820 816 812 807 801 796 793 790 785 779
808 811 813 816 819 821 824 826 829 831 833 835 837 839 841 843 844 846 848 849 851 853 854 857 859 861 863 864 866 867 868 870 871 871 872 873 873 873 874 874 874 875 875 875 876 876 875 875 875 874 874 873 873 873 872 871 870 869 868 866 864 862 860 858 855 853 851 848 845 842 838 835 832 827 823 818 814 811 808 803 797 793 789 785 780
808 811 814 816 819 822 824 827 829 831 833 835 837 839 841 843 844 846 848 849 851 853 855 857 859 861 863 864 866 868 869 870 871 871 872 873 873 874 875 875 875 875 876 876 876 876 876 875 875 875 875 874 874 873 873 872 870 869 868 866 864 862 860 858 855 853 850 848 845 842 839 835 832 827 823 819 816 812 809 805 800 795 791 786 780
808 811 814 816 819 822 824 827 829 831 833 835 837 839 841 843 844 846 847 849 851 853 855 857 859 861 863 865 866 868 869 870 871 871 872 873 874 875 875 876 876 876 876 877 876 876 876 876 875 875 875 875 874 874 873 872 871 869 868 866 864 862 860 858 856 854 851 848 846 843 840 836 833 830 826 823 820 815 809 805 800 795 792 786 780
807 810 813 816 819 822 824 827 829 831 834 836 838 840 841 843 844 845 847 849 851 853 855 857 859 861 862 864 866 868 869 870 871 872 872 873 874 875 876 876 876 876 877 877 877 876 876 876 875 875 875 874 874 874 873 872 870 869 868 866 864 862 861 859 857 855 852 849 847 844 841 838 835 832 829 825 820 815 810 805 800 795 791 786 780
807 810 813 816 819 821 824 827 830 832 834 836 838 840 841 843 844 845 847 849 851 853 855 857 859 861 863 865 866 868 869 870 871 872 873 874 874 875 876 876 876 877 877 877 877 876 876 876 876 875 875 874 874 873 872 871 870 869 867 866 864 862 861 859 857 855 853 850 848 845 843 840 836 833 830 826 821 816 811 807 802 797 793 789 783
807 810 813 816 818 821 824 826 829 831 833 835 837 840 841 843 844 845 846 848 850 852 854 857 859 861 863 865 866 868 869 870 871 872 873 874 874 875 876 876 877 877 877 877 877 877 877 876 876 875 875 874 874 873 872 871 869 868 867 865 864 862 861 859 857 855 854 851 849 847 844 841 838 834 831 827 822 816 811 807 803 798 794 790 785
806 809 812 815 818 820 823 825 827 829 831 834 836 839 841 843 844 845 846 848 850 853 855 857 859 861 862 864 866 867 869 870 871 872 873 874 874 875 876 876 877 877 877 876 877 877 876 876 876 875 875 874 874 872 871 870 869 868 867 865 864 862 860 859 857 855 853 852 850 847 845 842 839 835 831 828 823 818 813 808 803 799 796 792 787
805 808 812 815 817 819 821 823 826 828 831 833 836 839 841 843 845 847 847 848 850 853 856 857 859 860 862 864 866 867 868 869 870 871 872 873 874 875 876 876 876 877 877 876 877 877 876 876 875 875 875 874 873 872 871 870 869 867 866 865 864 862 860 858 857 855 853 851 850 847 845 842 839 836 832 828 824 820 815 810 806 802 797 792 787
803 806 809 813 815 817 820 822 825 828 830 833 835 838 840 843 845 847 848 848 848 851 855 857 858 860 862 863 865 867 868 869 870 871 872 873 874 875 875 876 876 876 876 876 877 876 876 875 875 875 875 874 873 872 871 870 869 867 866 865 863 862 860 859 857 855 853 851 849 847 845 842 839 836 832 828 824 820 815 810 807 803 797 791 785
802 804 807 810 813 816 818 820 823 826 829 831 833 835 839 841 843 844 846 848 849 849 853 856 857 859 861 863 865 866 867 868 869 870 871 872 873 874 875 875 876 876 876 876 876 876 876 875 875 875 875 874 873 872 871 870 869 868 866 864 863 861 860 858 856 854 853 851 849 847 844 842 839 835 832 828 824 819 814 809 805 801 796 791 785
800 802 804 808 811 814 816 819 821 824 826 829 831 834 837 840 842 843 844 847 849 850 852 855 857 859 861 863 864 865 866 867 868 869 870 871 872 873 874 875 875 876 876 876 876 876 875 875 875 875 875 874 873 872 871 870 869 868 867 865 864 862 860 858 855 853 852 850 848 845 843 840 837 834 831 827 823 819 815 810 806 802 797 792 787
798 799 802 806 809 812 814 817 820 822 824 828 830 833 836 839 841 842 844 846 848 849 852 854 856 858 860 862 864 865 866 867 867 868 870 871 872 872 873 874 874 875 875 875 875 875 875 875 875 875 875 874 873 872 871 870 869 868 867 866 865 863 861 859 856 854 851 849 846 844 841 839 836 833 830 826 823 819 815 812 807 803 798 793 788
796 798 802 805 808 811 814 816 819 822 824 827 829 832 835 838 840 842 844 845 847 849 851 853 855 857 860 861 863 864 865 865 866 867 868 869 870 871 872 873 874 874 874 875 875 875 875 875 875 875 875 874 873 872 871 871 870 869 868 867 865 864 862 859 857 855 852 849 846 843 840 837 835 832 829 826 822 819 815 811 808 805 801 795 790
795 798 802 805 807 810 813 815 818 822 825 827 829 832 834 836 838 840 843 845 846 848 850 852 855 857 859 860 862 863 864 864 865 866 867 868 869 870 871 872 873 873 873 874 874 875 875 875 875 875 875 874 873 872 872 871 870 869 868 867 866 864 862 859 857 854 852 849 846 843 841 838 835 832 829 826 822 819 815 811 808 805 801 797 792
795 798 801 804 807 810 813 815 818 821 824 826 829 831 834 836 837 839 842 843 845 847 849 851 854 856 858 860 861 862 862 863 864 865 865 867 868 869 870 871 871 872 873 873 874 874 874 875 875 874 874 874 873 872 872 871 870 870 869 867 866 864 862 859 857 854 852 849 847 844 841 838 835 832 829 826 822 819 815 812 809 805 802 798 794
793 797 799 803 806 809 811 814 817 820 823 825 828 830 833 835 837 838 840 842 844 846 848 850 853 855 857 859 860 860 861 862 863 864 864 865 867 868 869 870 870 871 872 872 873 873 874 874 874 874 873 873 872 872 871 871 870 870 869 867 865 864 861 859 857 855 852 850 847 844 842 839 836 833 830 827 823 819 815 812 809 806 802 798 794
793 796 799 802 805 808 811 813 816 818 821 824 826 829 831 834 836 837 839 840 842 845 847 849 852 854 856 857 858 859 860 862 863 863 863 864 865 867 868 869 869 870 871 871 872 872 873 873 873 873 873 872 872 871 871 871 870 869 868 867 865 863 861 860 858 855 853 851 848 845 842 840 837 834 831 828 824 820 817 813 809 806 802 798 794
793 795 798 801 803 807 810 813 815 817 820 822 825 827 829 832 834 836 838 839 841 843 845 847 850 852 854 855 857 858 860 861 862 862 863 863 865 866 867 868 868 869 870 870 871 871 872 872 872 872 872 872 871 871 870 870 869 869 868 866 865 863 862 860 858 856 854 852 849 846 843 840 838 835 831 828 824 821 818 814 809 806 802 797 793
791 794 797 800 802 805 808 811 814 816 819 821 824 826 828 830 832 834 837 838 840 842 844 846 848 850 852 853 855 857 858 860 861 861 862 862 864 865 866 866 867 868 869 869 869 870 870 871 871 871 871 871 871 870 870 869 869 868 867 866 865 863 862 860 858 857 855 852 850 847 844 841 838 834 831 827 825 822 819 814 810 806 802 797 793
790 793 796 799 802 804 806 810 812 815 818 820 822 825 827 829 830 832 834 836 838 840 842 843 845 847 849 851 854 855 857 858 859 860 860 861 862 864 865 865 866 867 867 868 868 869 869 869 870 870 870 870 870 869 869 868 867 867 866 865 864 863 862 860 858 857 855 852 850 847 845 841 838 834 831 828 825 823 819 815 811 807 803 798 794
788 791 795 798 800 802 805 808 811 814 816 818 820 823 825 827 829 830 832 833 835 837 839 841 842 844 847 850 852 854 855 856 856 857 858 859 860 862 863 864 865 865 866 867 867 868 868 868 868 869 869 869 869 868 868 867 866 866 865 865 863 862 861 859 858 856 855 852 850 847 844 841 838 835 832 829 826 823 820 816 813 809 804 800 796
787 790 793 796 799 801 804 807 809 812 814 816 819 821 823 826 828 829 831 832 833 835 837 839 840 842 845 848 850 852 853 854 854 855 856 857 858 860 861 862 863 864 865 865 866 867 867 867 868 868 868 868 868 867 867 866 865 865 864 863 863 861 860 859 857 856 854 852 850 847 844 842 839 836 833 830 827 824 821 817 814 810 806 802 798
786 789 792 794 797 799 802 805 807 809 812 814 817 820 823 825 827 828 830 831 833 835 837 838 839 841 844 846 848 850 852 853 853 854 855 856 857 858 860 861 862 863 864 865 865 866 866 866 867 867 867 867 867 866 866 865 864 863 863 862 861 860 859 858 857 855 853 851 849 847 844 842 839 837 834 831 827 824 821 818 815 812 808 804 801
784 787 789 792 794 797 800 803 805 808 810 812 815 818 821 824 825 826 828 830 832 834 836 838 840 841 843 846 848 850 851 852 853 854 854 855 856 857 858 860 861 862 863 864 865 865 865 866 866 866 866 866 865 865 864 863 863 862 861 861 860 859 858 857 855 854 852 850 848 846 844 842 840 837 835 832 828 825 822 819 816 813 810 806 803
780 784 786 789 792 795 798 800 803 806 809 811 814 816 819 822 824 825 827 828 831 833 835 837 839 841 843 845 847 849 850 851 852 853 853 854 855 856 857 859 860 861 862 863 864 864 864 865 865 865 865 865 864 863 863 862 861 860 860 859 858 857 857 855 854 852 851 849 847 845 843 841 839 836 834 832 829 826 823 820 817 814 811 808 804
777 780 784 787 790 793 796 798 800 803 806 808 811 814 817 820 821 824 826 827 829 832 834 836 838 840 842 844 846 847 849 850 851 852 853 853 854 855 856 857 859 860 861 861 862 863 863 863 864 864 864 863 863 862 861 860 860 859 858 857 856 855 855 854 852 851 849 848 846 844 842 840 838 836 834 831 829 827 824 821 818 815 812 809 806
776 778 781 784 787 790 793 795 797 800 803 805 808 811 814 816 818 821 825 827 828 830 832 834 836 838 840 842 844 845 847 848 850 851 852 852 853 854 855 856 857 858 859 859 860 861 861 861 862 862 862 862 861 860 860 859 858 857 856 855 854 853 852 851 850 849 847 846 844 843 841 839 837 835 833 831 829 827 824 822 820 817 814 811 808
775 777 779 782 785 787 790 792 794 797 800 802 805 808 810 812 814 816 819 823 826 829 831 833 834 836 838 840 841 843 845 846 848 849 850 851 852 852 853 854 855 856 856 857 858 858 859 859 860 860 860 860 859 858 858 857 856 855 854 853 852 851 850 849 848 847 846 844 843 841 840 838 836 834 832 830 828 826 824 822 820 818 815 813 809
774 776 779 781 783 785 788 790 792 795 797 800 802 805 807 809 811 812 814 818 823 826 829 831 833 834 836 837 839 840 842 843 845 847 848 849 850 850 851 852 853 854 854 855 855 855 856 857 857 857 857 857 857 856 856 855 854 853 852 851 850 849 848 847 846 845 844 842 841 840 838 837 835 833 831 830 828 826 824 822 820 818 816 813 810
772 774 777 779 782 784 786 789 791 793 795 798 800 803 805 807 809 810 811 815 819 823 826 828 830 832 833 835 836 838 839 840 842 843 845 847 848 848 849 849 850 851 852 852 852 853 853 854 854 855 855 855 854 854 853 853 852 851 850 849 848 847 846 845 844 843 842 840 839 838 837 835 834 832 830 829 827 825 824 821 819 817 815 813 810
770 772 774 777 780 782 785 787 789 792 794 796 799 801 802 804 806 808 809 811 815 819 822 825 827 828 830 832 834 835 836 837 839 840 842 843 844 845 846 846 847 848 849 849 850 850 850 851 851 851 852 852 852 851 851 850 850 849 848 847 846 845 844 843 842 841 839 838 837 836 835 833 832 831 829 827 826 824 822 821 819 816 814 812 810
769 771 773 775 778 780 782 785 788 790 792 794 797 799 800 802 804 806 807 809 813 817 820 822 824 825 827 829 831 833 833 834 835 837 839 840 841 842 843 844 844 845 845 846 847 847 847 848 848 848 849 849 849 848 848 848 847 847 846 845 844 843 842 841 839 838 837 835 834 833 832 831 830 829 827 826 824 823 821 819 818 816 814 812 810
767 770 772 774 777 779 781 784 786 788 790 792 795 797 799 801 802 804 806 808 810 814 817 819 820 822 824 826 828 829 831 831 832 834 835 837 838 839 840 841 842 842 843 843 844 844 845 845 845 845 845 846 846 845 845 845 845 844 844 843 842 841 840 838 837 836 834 833 832 831 830 829 828 827 825 824 823 821 819 818 816 814 813 811 809
766 769 771 773 776 778 781 783 785 786 788 791 793 795 797 799 801 803 805 806 808 811 814 816 818 820 821 822 824 826 828 829 830 831 832 834 835 837 837 838 839 839 840 841 841 842 842 842 842 842 842 842 842 842 842 842 842 842 841 840 839 838 837 835 834 833 831 830 829 828 827 826 825 824 823 822 821 819 817 816 815 813 811 810 808
765 767 770 772 775 777 779 781 783 785 787 789 791 793 795 798 800 802 804 805 807 809 812 814 815 817 819 820 822 824 826 828 829 829 830 831 833 834 835 836 836 837 837 838 838 839 839 839 839 839 839 839 839 839 839 839 839 839 838 838 836 835 834 833 831 830 829 828 826 825 824 823 822 821 820 819 818 817 815 814 813 811 810 808 806
763 765 768 770 773 775 777 779 781 784 786 787 789 792 794 796 799 801 803 805 806 808 810 811 813 814 816 817 819 821 823 825 826 826 827 829 830 831 832 833 833 834 834 835 835 836 836 836 836 836 836 836 836 836 836 837 836 836 835 834 833 832 831 830 828 827 826 825 824 822 821 820 819 818 817 816 815 814 813 812 810 809 808 806 805
762 764 767 769 771 774 776 778 780 782 783 786 788 790 792 795 797 799 801 803 804 806 808 809 810 812 813 815 817 819 821 822 822 823 824 826 827 827 828 829 830 831 831 832 832 833 833 833 833 833 833 833 833 833 834 833 833 833 832 831 830 829 828 827 826 825 824 823 822 821 819 818 817 816 815 814 813 811 810 809 808 807 805 804 803
761 763 765 768 770 773 775 777 779 780 783 785 787 789 791 793 795 797 799 801 803 804 805 807 808 809 810 812 814 816 817 818 819 820 822 823 824 824 825 826 827 827 828 828 828 829 829 830 830 830 830 830 830 831 831 830 830 830 829 828 827 826 825 824 823 822 821 820 820 819 818 816 815 813 812 811 810 809 807 806 805 804 803 801 800
760 762 764 766 769 771 773 775 778 780 782 783 785 787 789 791 793 795 797 799 801 802 803 804 806 806 807 809 810 812 814 815 817 818 819 820 821 822 823 823 824 824 824 824 825 825 825 826 826 826 827 827 827 828 828 827 827 826 826 825 824 823 822 821 820 819 818 818 817 816 815 814 813 811 809 808 807 806 804 803 802 801 800 799 797
759 761 763 765 767 769 772 774 776 778 780 781 783 785 787 789 791 793 795 797 799 800 801 802 803 804 804 806 808 809 811 813 814 815 816 817 818 819 820 820 820 820 820 821 821 822 822 823 823 823 824 824 824 824 824 824 824 823 822 821 820 819 818 818 817 816 816 815 814 813 812 811 810 808 807 805 804 802 801 800 799 798 797 796 795
757 759 762 763 766 768 769 771 774 776 778 780 782 784 786 788 790 791 793 795 797 798 799 800 801 802 802 804 805 807 808 810 811 812 814 814 815 816 816 816 817 817 817 818 818 819 819 820 820 820 820 821 821 821 820 820 820 819 818 818 817 816 815 815 814 813 813 812 811 810 809 808 807 805 804 803 801 800 798 797 796 795 794 793 792
756 758 760 762 764 766 767 769 771 773 775 778 780 782 784 786 788 789 791 793 795 796 797 798 799 799 801 802 803 804 806 807 808 809 810 811 812 812 813 813 813 814 814 815 815 816 816 816 817 817 817 817 817 817 817 816 816 816 815 814 813 813 812 812 811 810 809 809 808 807 806 804 803 802 801 799 798 797 796 795 793 792 791 790 788
755 757 759 761 763 765 766 768 770 772 774 776 778 780 782 784 786 788 789 791 792 794 795 796 796 798 799 800 801 802 803 804 805 806 807 808 808 809 809 810 810 811 811 812 812 813 813 813 813 813 813 813 813 813 813 813 813 812 812 811 811 810 809 809 808 807 806 805 804 804 803 801 800 799 798 796 795 794 793 791 790 789 788 786 785
754 756 758 760 762 764 765 767 769 771 773 775 777 778 780 782 784 785 787 789 790 792 793 793 795 796 797 798 799 799 800 801 802 803 804 805 805 806 806 807 807 808 808 809 809 809 810 810 809 810 810 810 810 810 810 809 809 809 809 808 808 807 806 805 804 804 803 802 801 800 799 798 797 796 795 794 792 791 790 788 787 786 785 783 782